Tracking 25612 objects as of 20-May-2022
HD Live streaming from Space Station
objects crossing your sky now

STARLINK-1099

Track STARLINK-1099 now!
10-day predictions
STARLINK-1099 is classified as:


NORAD ID: 44918
Int'l Code: 2020-001E
Perigee: 552.8 km
Apogee: 555.9 km
Inclination: 53.1 °
Period: 95.6 minutes
Semi major axis: 6925 km
RCS: Unknown
Launch date: January 7, 2020
Source: United States (US)
Launch site: AIR FORCE EASTERN TEST RANGE (AFETR)
aabbcc
Your satellite tracking list
Your tracking list is empty




NASA's NSSDC Master Catalog

Two Line Element Set (TLE):
1 44918U 20001E   22140.29382004  .00011939  00000-0  81906-3 0  9996
2 44918  53.0532 103.8522 0002253  58.9963 301.1247 15.06398700131179
Source of the keplerian elements: AFSPC